TimeCDT,TemperatureF,Dew PointF,Humidity,Sea Level PressureIn,VisibilityMPH,Wind Direction,Wind SpeedMPH,Gust SpeedMPH,PrecipitationIn,Events,Conditions,WindDirDegrees,DateUTC
12:53 AM,39.0,36.0,89,29.77,10.0,WSW,3.5,-,N/A,,Scattered Clouds,250,2013-10-20 05:53:00
1:53 AM,37.9,35.1,89,29.78,10.0,West,4.6,-,N/A,,Clear,260,2013-10-20 06:53:00
2:53 AM,36.0,34.0,93,29.79,10.0,Calm,Calm,-,N/A,,Clear,0,2013-10-20 07:53:00
3:53 AM,35.1,33.1,92,29.80,9.0,SW,4.6,-,N/A,,Clear,220,2013-10-20 08:53:00
4:17 AM,35.6,33.8,93,29.78,8.0,SW,3.5,-,N/A,,Scattered Clouds,220,2013-10-20 09:17:00
4:26 AM,35.6,33.8,93,29.78,5.0,WSW,3.5,-,N/A,,Mostly Cloudy,240,2013-10-20 09:26:00
4:53 AM,36.0,35.1,97,29.81,4.0,Calm,Calm,-,N/A,,Overcast,0,2013-10-20 09:53:00
5:23 AM,35.6,33.8,93,29.79,2.0,WSW,3.5,-,N/A,,Overcast,250,2013-10-20 10:23:00
5:31 AM,35.6,33.8,93,29.79,1.0,West,5.8,-,N/A,,Overcast,260,2013-10-20 10:31:00
5:38 AM,35.6,33.8,93,29.79,0.8,West,3.5,-,N/A,,Overcast,270,2013-10-20 10:38:00
5:46 AM,35.6,33.8,93,29.79,1.2,West,4.6,-,N/A,,Overcast,280,2013-10-20 10:46:00
5:53 AM,35.1,34.0,96,29.82,1.2,West,4.6,-,N/A,,Overcast,270,2013-10-20 10:53:00
6:03 AM,35.6,33.8,93,29.79,0.5,WSW,4.6,-,N/A,Fog,Fog,250,2013-10-20 11:03:00
6:51 AM,35.6,33.8,93,29.81,0.2,WSW,5.8,-,N/A,Fog,Fog,240,2013-10-20 11:51:00
6:53 AM,35.1,33.1,92,29.83,0.5,WSW,4.6,-,N/A,Fog,Fog,240,2013-10-20 11:53:00
7:31 AM,35.6,33.8,93,29.82,0.2,WSW,4.6,-,N/A,Fog,Fog,250,2013-10-20 12:31:00
7:53 AM,35.1,34.0,96,29.85,0.2,Calm,Calm,-,N/A,Fog,Fog,0,2013-10-20 12:53:00
8:16 AM,35.6,33.8,93,29.83,0.5,West,4.6,-,N/A,Fog,Fog,280,2013-10-20 13:16:00
8:26 AM,35.6,35.6,100,29.83,0.2,Calm,Calm,-,N/A,Fog,Fog,0,2013-10-20 13:26:00
8:53 AM,36.0,35.1,97,29.87,0.2,Variable,3.5,-,N/A,Fog,Fog,0,2013-10-20 13:53:00
9:08 AM,35.6,35.6,100,29.83,0.5,Variable,3.5,-,N/A,Fog,Fog,0,2013-10-20 14:08:00
9:17 AM,35.6,35.6,100,29.83,0.2,West,3.5,-,N/A,Fog,Fog,260,2013-10-20 14:17:00
9:24 AM,35.6,35.6,100,29.83,1.0,Variable,3.5,-,N/A,,Overcast,0,2013-10-20 14:24:00
9:50 AM,37.4,35.6,93,29.83,3.0,Calm,Calm,-,N/A,,Overcast,0,2013-10-20 14:50:00
9:53 AM,37.0,36.0,96,29.86,6.0,South,4.6,-,N/A,,Overcast,190,2013-10-20 14:53:00
10:01 AM,37.4,35.6,93,29.83,1.0,South,3.5,-,N/A,,Overcast,190,2013-10-20 15:01:00
10:53 AM,39.0,37.0,93,29.86,1.0,Variable,4.6,-,N/A,,Overcast,0,2013-10-20 15:53:00
11:16 AM,39.2,37.4,93,29.82,1.0,SE,3.5,-,N/A,,Overcast,140,2013-10-20 16:16:00
11:53 AM,42.1,37.9,85,29.84,1.0,South,5.8,-,N/A,,Overcast,170,2013-10-20 16:53:00
12:05 PM,42.8,37.4,81,29.81,1.0,South,6.9,-,N/A,,Overcast,170,2013-10-20 17:05:00
12:32 PM,42.8,37.4,81,29.81,10.0,South,5.8,-,N/A,,Overcast,170,2013-10-20 17:32:00
12:53 PM,44.1,37.0,76,29.81,10.0,SSE,6.9,-,N/A,,Overcast,150,2013-10-20 17:53:00
1:53 PM,45.0,37.9,76,29.78,10.0,SE,9.2,-,0.01,,Overcast,140,2013-10-20 18:53:00
2:53 PM,45.0,39.0,80,29.74,7.0,ESE,6.9,-,0.02,Rain,Light Rain,120,2013-10-20 19:53:00
3:53 PM,46.0,37.9,73,29.72,10.0,SE,6.9,-,0.00,,Overcast,130,2013-10-20 20:53:00
4:53 PM,46.0,37.9,73,29.72,10.0,SSE,8.1,-,N/A,,Overcast,150,2013-10-20 21:53:00
5:53 PM,45.0,39.9,82,29.72,10.0,South,4.6,-,0.00,,Overcast,180,2013-10-20 22:53:00
6:53 PM,46.0,41.0,83,29.71,10.0,SSW,6.9,-,0.01,,Overcast,200,2013-10-20 23:53:00
7:46 PM,46.4,42.8,87,29.68,10.0,SSW,5.8,-,0.02,,Overcast,210,2013-10-21 00:46:00
7:53 PM,46.0,43.0,89,29.70,10.0,SSW,5.8,-,0.02,,Overcast,200,2013-10-21 00:53:00
8:53 PM,46.0,43.0,89,29.70,9.0,SSW,6.9,-,N/A,,Mostly Cloudy,210,2013-10-21 01:53:00
9:53 PM,46.9,44.1,90,29.69,10.0,SSW,6.9,-,N/A,,Overcast,210,2013-10-21 02:53:00
10:53 PM,46.9,44.1,90,29.69,10.0,SSW,9.2,-,N/A,,Overcast,210,2013-10-21 03:53:00
11:53 PM,48.9,43.0,80,29.70,10.0,Variable,6.9,17.3,N/A,,Overcast,0,2013-10-21 04:53:00